Weather History for Ballenas Island, BC

Change the Weather History Date:

Monday, December 10, 2012

  Actual Average Record
Temperature  
Mean Temperature 40 °F -  
Max Temperature 43 °F - - ()
Min Temperature 38 °F - - ()
Degree Days  
Heating Degree Days 24    
Moisture  
Dew Point 38 °F    
Average Humidity 87    
Maximum Humidity 91    
Minimum Humidity 79    
Precipitation  
Precipitation 0.00 in - - ()
Sea Level Pressure  
Sea Level Pressure 30.27 in    
Wind  
Wind Speed 11 mph ()    
Max Wind Speed 21 mph    
Max Gust Speed -    
T = Trace of Precipitation, MM = Missing Value Source: Averaged Metar Reports

Daily Weather History Graph

Daily Weather History Graph

Search for Another Location

Airport:

Trip Planner

Search our weather history database for the weather conditions in past years. The results will help you decide how hot, cold, wet, or windy it might be!

Date:

Astronomy

Dec. 10, 2012 Rise Set
Actual Time 8:01 AM PST 4:17 PM PST
Civil Twilight 7:24 AM PST 4:55 PM PST
Nautical Twilight 6:43 AM PST 5:35 PM PST
Astronomical Twilight 6:04 AM PST 6:14 PM PST
Moon 4:41 AM PST (12/10) 2:19 PM PST (12/10)
Length of Visible Light 9h 30m
Length of Day
8h 15m
Waning Crescent, 9% of the Moon is Illuminated
Dec 10
Waning Crescent
Dec 13
New
Dec 19
First Quarter
Dec 28
Full
Jan 4
Last Quarter

Hourly Weather History & Observations

Time (PST) Temp. Windchill Dew Point Humidity Pressure Visibility Wind Dir Wind Speed Gust Speed Precip Events Conditions
12:00 AM 40.8 °F 32.9 °F 36.7 °F 85% 30.35 in - West 15.0 mph - N/A   Unknown
2:00 AM 39.9 °F 32.1 °F 36.5 °F 88% 30.36 in - WSW 13.8 mph - N/A   Unknown
3:00 AM 40.1 °F 32.4 °F 36.3 °F 86% 30.36 in - WSW 13.8 mph - N/A   Unknown
4:00 AM 41 °F - 37 °F 80% 30.35 in - WSW 10.4 mph - -  
5:00 AM 40.5 °F 33.2 °F 36.3 °F 85% 30.36 in - SW 12.7 mph - N/A   Unknown
6:00 AM 40.6 °F 36.0 °F 36.0 °F 83% 30.36 in - SW 6.9 mph - N/A   Unknown
8:00 AM 40.8 °F - 36.9 °F 86% 30.35 in - SW 2.3 mph - N/A   Unknown
9:00 AM 41.9 °F 39.0 °F 37.6 °F 85% 30.35 in - East 4.6 mph - N/A   Unknown
10:00 AM 42 °F - 38 °F 79% 30.36 in - East 5.8 mph - -  
10:00 AM 42.3 °F 38.6 °F 37.8 °F 84% 30.36 in - East 5.8 mph - N/A   Unknown
11:00 AM 42.4 °F 37.0 °F 38.1 °F 85% 30.34 in - ESE 9.2 mph - N/A   Unknown
12:00 PM 42.4 °F 36.5 °F 37.9 °F 84% 30.32 in - East 10.4 mph - N/A   Unknown
1:00 PM 42.3 °F 36.3 °F 39.0 °F 88% 30.31 in - ESE 10.4 mph - N/A   Unknown
2:00 PM 42.4 °F 36.5 °F 39.7 °F 90% 30.29 in - ESE 10.4 mph - N/A   Unknown
3:00 PM 42.3 °F 35.5 °F 39.6 °F 90% 30.27 in - ESE 12.7 mph - N/A   Unknown
4:00 PM 43 °F - 40 °F 85% 30.25 in - ESE 15.0 mph - -  
4:00 PM 42.6 °F 35.2 °F 40.1 °F 91% 30.25 in - ESE 15.0 mph - N/A   Unknown
5:00 PM 42.6 °F 35.2 °F 39.7 °F 90% 30.22 in - ESE 15.0 mph - N/A   Unknown
6:00 PM 42.6 °F 34.6 °F 39.6 °F 89% 30.20 in - ESE 17.3 mph - N/A   Unknown
7:00 PM 42.3 °F 33.8 °F 38.8 °F 88% 30.16 in - ESE 18.4 mph - N/A   Unknown
8:00 PM 42.3 °F 33.3 °F 39.2 °F 89% 30.12 in - ESE 20.7 mph - N/A   Unknown
10:00 PM 42 °F - 40 °F 88% 30.06 in - ESE 20.7 mph - -  
10:00 PM 42.1 °F 33.1 °F 39.6 °F 91% 30.06 in - ESE 20.7 mph - N/A   Unknown
11:00 PM 42.4 °F 33.5 °F 39.6 °F 90% 30.00 in - ESE 20.7 mph - N/A   Unknown